[Date Prev][Date Next][Thread Prev][Thread Next] - [Date Index][Thread Index][Author Index]

STS-96 Nominal OMS-2 Orbital Data



Below is the nominal OMS-2 State Vector and Keplerian Elements for 
STS-96.  The vector data comes from NASA; the Keplerian Elements 
were computed from the vector.  

This file may be read by VEC2TLE version 9648 to update your 
Keplerian Elements text file.

Vector format = 10117
Satellite Name:         STS-96 OMS-2
Catalog Number:         99996            
Epoch MET:                  0.03127314815
                           0/00:45:02.000 MET
EFG E:                          5105038.7 ft
    F:                         20736696.5 ft
    G:                         -5184858.5 ft
    Edot:                   -15196.739342 ft/s
    Fdot:                     -982.347072 ft/s
    Gdot:                   -18803.024635 ft/s
ndot/2 (drag):              0.00342058095 rev/day^2
nddt/6:                       4.83582E-07 rev/day^3
Bstar:                        7.21800E-05 1/Earth Radii
Elset #:                                1
Rev @ Epoch:                1.54892325323

Launch scheduled: 1998-MAY-20 13:32 UTC

Note that 99996 is a temporary Catalog Number.  A permanent Catalog 
Number and International Designator will be assigned when STS-96 is
launched.

The following Keplerian elements were computed by VEC2TLE from this
vector and the nominal launch time, using a 0.5 drag multiplier:

STS-96 OMS-2
1 99996U          99140.59516204  .00342058  48358-6  72180-4 0    19
2 99996  51.5956 337.1210 0121564  10.4912 187.1065 16.13207250    14

Satellite: STS-96 OMS-2
Catalog number: 99996
Epoch time:      99140.59516204
Element set:       1
Inclination:       51.5956 deg
RA of node:       337.1210 deg
Eccentricity:    0.0121564
Arg of perigee:    10.4912 deg
Mean anomaly:     187.1065 deg
Mean motion:   16.13207250 rev/day
Decay rate:    3.42058e-03 rev/day^2
Epoch rev:               1
Checksum:              285

VEC2TLE may be downloaded from <http://www.mindspring.com/~n2wwd>.

Ken Ernandes
n2wwd@amsat.org
http://www.mindspring.com/~n2wwd

----
Via the sarex mailing list at AMSAT.ORG courtesy of AMSAT-NA.
To unsubscribe, send "unsubscribe sarex" to Majordomo@amsat.org



AMSAT Top AMSAT Home